Location: Coleto Creek Park and Reservoir
(28.7196°N, 97.1740°W)
Time: 05:42:10
(UTC-05:00)

ISS - Visible Passes

Search period start: 24 June 2018 00:00
Search period end: 04 July 2018 00:00
Orbit: 403 x 408 km, 51.6° (Epoch: 24 June)

Date Brightness Start Highest point End Pass type
(mag) Time Alt. Az. Time Alt. Az. Time Alt. Az.
26 Jun -1.4 06:07:09 10° S 06:09:27 18° SE 06:11:46 10° E visible
28 Jun -3.4 05:58:21 10° SSW 06:01:34 58° SE 06:04:48 10° NE visible
29 Jun -2.0 05:08:11 18° SSE 05:09:34 24° SE 05:12:17 10° ENE visible
30 Jun -0.8 04:18:22 10° ESE 04:18:22 10° ESE 04:18:28 10° ESE visible
30 Jun -3.0 05:51:02 12° WSW 05:53:47 40° NW 05:56:54 10° NNE visible
01 Jul -3.9 05:01:07 59° SSW 05:01:38 83° SE 05:04:55 10° NE visible
02 Jul -1.4 04:11:07 21° E 04:11:07 21° E 04:12:34 10° ENE visible
02 Jul -1.6 05:44:01 10° WNW 05:46:07 16° NW 05:48:13 10° N visible
03 Jul -2.6 04:53:41 30° NW 04:53:50 30° NW 04:56:46 10° NNE visible
